Tracking 19246 objects as of 20-Aug-2018
HD Live streaming from Space Station
objects crossing your sky now

ARIANE 40 R/B

Track ARIANE 40 R/B now!
10-day predictions


NORAD ID: 25979
Int'l Code: 1999-064C
Perigee: 583.6 km
Apogee: 592.1 km
Inclination: 98.2 °
Period: 96.3 minutes
Semi major axis: 6958 km
RCS: 12.2393 m2 (large)
Launch date: December 3, 1999
Source: France (FR)
Launch site: FRENCH GUIANA (FRGUI)

Note: This is a ROCKET BODY
aabbcc
Your satellite tracking list
Your tracking list is empty




NASA's NSSDC Master Catalog

Two Line Element Set (TLE):
1 25979U 99064C   18232.21890758  .00000754  00000-0  73791-4 0  9993
2 25979  98.1938 112.5707 0006055 350.9589   9.1521 14.95533512 14304
Source of the keplerian elements: AFSPC